Regional Weather Roundup
Issued by NWS

Home | Current Version | Previous Version | Text Only | Print | Product List | Glossary On
Versions: 1 2 3 4 5 6 7 8 9 10 11 12 13 14 15 16 17 18 19 20 21 22 23 24 25 26 27 28 29 30 31 32 33 34 35 36 37 38 39 40 41 42 43 44 45 46 47 48 49 50
000
ASUS43 KTOP 220559
RWRKS

WEATHER ROUNDUP FOR KANSAS
NATIONAL WEATHER SERVICE GOODLAND KS
100 AM CDT FRI SEP 22 2017

NOTE:  "FAIR" INDICATES FEW OR NO CLOUDS BELOW 12,000 FEET WITH NO
SIGNIFICANT WEATHER AND/OR OBSTRUCTIONS TO VISIBILITY.

KSZ001>006-013>018-027>032-041>047-220700-
NORTHWEST KANSAS

CITY           SKY/WX    TMP DP  RH WIND       PRES   REMARKS
GOODLAND       CLEAR     68  43  40 S14       29.71S
6HR MIN TEMP:  68; 6HR MAX TEMP:  89;

HAYS           CLEAR     81  69  67 S24G32    29.76R
HILL CITY      CLEAR     82  68  62 S26G39    29.73S
6HR MIN TEMP:  82; 6HR MAX TEMP:  96;

RUSSELL        CLEAR     82  68  62 S24G37    29.77R
6HR MIN TEMP:  82; 6HR MAX TEMP:  95;

$$

KSZ061>065-074>080-084>089-220700-
SOUTHWEST KANSAS

CITY           SKY/WX    TMP DP  RH WIND       PRES   REMARKS
DODGE CITY     CLEAR     79  68  69 S24G33    29.82R
6HR MIN TEMP:  79; 6HR MAX TEMP:  92;

ELKHART          N/A     69  53  56 S14         N/A
GARDEN CITY    CLEAR     77  65  66 S23G33    29.78R
6HR MIN TEMP:  76; 6HR MAX TEMP:  91;

GREAT BEND     CLEAR     80  70  71 S22G32    29.81R
LIBERAL        CLEAR     78  61  55 S24G32    29.81R
$$

KSZ066>073-081>083-090>101-220700-
SOUTHEAST KANSAS

CITY           SKY/WX    TMP DP  RH WIND       PRES   REMARKS
CHANUTE        CLEAR     77  70  79 S10       29.93R
6HR MIN TEMP:  76; 6HR MAX TEMP:  86;

COFFEYVILLE    CLEAR     76  70  82 S7        29.91S
6HR MIN TEMP:  76; 6HR MAX TEMP:  86;

HUTCHINSON     CLEAR     80  70  71 S18G28    29.84R
6HR MIN TEMP:  80; 6HR MAX TEMP:  93;

MEDICINE LODGE   N/A     80  68  66 S13G22    29.84R
NEWTON         CLEAR     79  69  71 S17       29.88R
WICHITA INTL   CLEAR     80  70  71 S21       29.87R
6HR MIN TEMP:  80; 6HR MAX TEMP:  90;

WICHITA JABRA  CLEAR     79  70  74 S14       29.88R
6HR MIN TEMP:  79; 6HR MAX TEMP:  88;

WINFIELD       CLEAR     79  70  74 S13       29.90R
6HR MIN TEMP:  79; 6HR MAX TEMP:  88;

$$

KSZ007>012-019>026-033>040-048>060-102>105-220700-
NORTHEAST KANSAS

CITY           SKY/WX    TMP DP  RH WIND       PRES   REMARKS
CONCORDIA      CLOUDY    80  72  76 S16G24    29.80R
6HR MIN TEMP:  80; 6HR MAX TEMP:  90;

EMPORIA        CLEAR     77  70  79 S17G25    29.89R
6HR MIN TEMP:  77; 6HR MAX TEMP:  86;

LAWRENCE       CLEAR     78  72  81 SE14      29.90R
6HR MIN TEMP:  78; 6HR MAX TEMP:  86;

MANHATTAN      CLEAR     82  70  66 S17G26    29.84R
6HR MIN TEMP:  82; 6HR MAX TEMP:  91;

OLATHE IND     CLEAR     77  70  79 S12       29.93R
6HR MIN TEMP:  77; 6HR MAX TEMP:  85;

OLATHE EXE     CLEAR     76  71  85 S12       29.93R
6HR MIN TEMP:  75; 6HR MAX TEMP:  84;

SALINA         CLEAR     84  70  62 S21G29    29.81R
6HR MIN TEMP:  84; 6HR MAX TEMP:  95;

TOPEKA BILLARD CLEAR     80  73  79 S15       29.87R
6HR MIN TEMP:  80; 6HR MAX TEMP:  88;

TOPEKA FORBES  CLEAR     79  72  79 S12       29.89R
6HR MIN TEMP:  79; 6HR MAX TEMP:  88;

$$



USA.gov is the U.S. government's official web portal to all federal, state and local government web resources and services.